Weather in Vacoas-Phoenix

Mauritius     20°09′24″S   57°30′06″E
temp.,
°C
wind,
m/s
gust,
m/s
humid.,
%
clouds,
%
prec.,
mm/h
press.,
hPa
HPBL,
m
25 june, sat
sat2501:00+19se6116521 0.0 1023982
04:00+19se6116145 0.0 10211229
07:00+18ese6116523 0.0 1023875
10:00+21ese7105651 0.0 10241459
13:00+22ese785341 0.0 10221568
16:00+21ese685769 0.1 10211398
19:00+19ese486236 0.0 1022600
22:00+19se376774 0.0 1023471
26 june, sun
sun2601:00+18ese377627 0.1 1022406
04:00+18se368049 0.3 1022276
07:00+17se348317 0.2 1023162
10:00+21se346325 0.4 10241076
13:00+21sse335998 0.2 10221191
16:00+21se445849 0.3 10221157
19:00+18se37770 0.1 1023417
22:00+17sse38811 0.1 1023367
27 june, mon
mon2701:00+17se37770 0.0 1023307
04:00+16se36752 0.0 1022212
07:00+16se36731 0.0 1023191
10:00+21se465517 0.0 10231401
13:00+22se565220 0.0 10221464
16:00+20sse566253 0.0 10221217
19:00+19se487272 0.1 1024622
22:00+19se377064 0.1 1025733
28 june, tue
tue2801:00+18s2784100 0.1 1024713
04:00+18se5108351 0.6 1023898
07:00+18sse7117999 0.3 1024896
10:00+20sse795732 0.4 10251440
13:00+20se8116232 0.1 10241477
16:00+19se8116721 0.3 10231343
19:00+19se6115682 0.0 10241535
22:00+18se6107133 0.1 1025967
29 june, wed
wed2901:00+18se6106842 0.1 10251106
04:00+18se6106915 0.2 10231068
07:00+18se610699 0.3 1024983
10:00+20se6106371 0.3 10251400
13:00+20se796072 0.3 10231388
16:00+20se696137 0.3 10231351
19:00+18se51081100 0.2 10231010
22:00+18se510716 0.4 1024790